Wind_Speed
22 21 20 19 19 18 17 15 13 13 11 10 10 10 10 8 7 6 5 4 4 4 4 4 5 6 7 8 10 11 13 14 16 18 19 19 18 18 17 17 16 15 14 12
21 21 21 21 19 18 16 14 13 13 11 10 9 9 9 8 7 6 5 5 4 3 3 4 5 6 7 8 10 11 13 15 16 18 19 19 19 19 18 18 17 16 13 12
19 20 21 19 18 16 15 14 13 12 10 9 8 8 9 7 7 6 6 4 4 3 4 4 5 6 7 8 10 12 13 15 17 18 19 19 19 19 18 18 17 16 14 12
20 20 20 18 17 15 14 14 12 10 9 8 8 7 8 7 7 6 5 4 4 4 4 4 5 5 7 8 10 12 14 15 16 18 19 19 20 20 19 19 18 17 15 13
18 18 18 17 16 14 13 12 11 9 8 8 8 7 8 7 7 6 5 5 4 4 3 4 5 6 7 8 10 12 13 15 16 17 18 19 20 20 20 19 18 17 16 14
17 16 16 16 15 13 12 10 9 9 9 8 8 7 7 7 7 6 6 5 5 4 4 4 5 6 7 9 10 12 13 15 16 17 18 19 19 20 20 19 19 18 16 15
15 15 14 14 13 12 10 9 9 9 9 9 8 8 7 8 7 6 6 6 5 5 4 5 5 6 7 9 10 12 13 14 16 17 18 18 19 19 20 20 19 18 17 15
13 13 13 13 12 10 9 9 9 9 10 10 8 8 8 8 8 7 7 6 6 5 5 5 6 6 7 9 10 11 13 14 16 17 17 18 18 19 19 20 19 19 17 16
12 11 11 11 11 10 10 9 9 9 9 8 8 8 9 9 9 8 8 7 7 6 6 6 6 6 7 8 10 11 13 14 15 16 17 17 18 18 19 19 19 19 18 16
9 9 9 9 9 9 9 9 9 9 9 8 7 8 10 10 9 9 9 8 8 7 7 7 6 6 7 8 10 11 12 13 14 15 16 17 18 18 18 18 18 18 18 16
8 7 8 8 8 8 9 9 9 9 9 8 8 8 10 10 10 10 9 9 9 8 8 7 7 7 7 8 10 11 12 13 14 15 16 16 17 17 18 18 18 18 17 16
7 7 7 8 9 9 9 9 9 10 10 9 9 8 10 11 10 10 10 10 10 9 9 8 7 7 8 9 10 11 12 12 13 14 15 16 16 17 17 17 17 17 17 16
6 6 6 8 9 9 10 10 11 11 11 11 10 9 11 11 12 11 11 11 10 10 10 9 8 8 8 9 10 11 11 12 13 14 14 15 16 16 16 16 17 17 17 16
7 8 8 9 10 11 11 11 12 12 12 12 11 11 12 13 13 13 12 11 11 11 11 10 9 9 9 9 10 10 11 12 13 13 14 15 15 16 16 16 16 16 16 15
8 9 10 11 12 12 12 12 13 13 13 13 12 12 13 14 14 14 13 12 12 12 12 11 10 10 9 9 10 10 11 12 12 13 14 14 15 15 15 15 15 15 15 15
9 10 11 12 13 13 13 13 14 14 14 15 14 13 15 16 15 14 14 13 13 13 13 12 12 11 11 10 10 11 11 11 12 13 13 14 15 15 15 15 15 15 15 15
11 12 12 13 14 14 14 14 15 16 16 16 15 14 16 16 16 15 15 14 14 14 14 13 13 12 12 12 11 11 11 12 12 12 13 14 15 15 14 14 15 15 14 14
12 13 14 14 15 16 14 15 16 17 16 17 16 17 17 16 16 16 15 15 15 15 14 15 14 14 13 13 13 12 12 12 12 12 13 14 15 15 14 14 14 14 14 14
14 14 16 16 16 16 15 16 17 17 17 18 18 18 18 17 17 16 16 17 16 16 16 16 15 15 15 15 14 14 13 13 13 13 13 14 14 15 15 14 13 13 13 13
16 17 18 18 18 18 16 17 17 18 19 19 19 18 18 18 18 18 18 18 17 17 17 17 17 16 16 16 16 15 15 14 14 14 14 14 14 14 14 14 14 13 13 13
19 20 20 21 21 21 20 19 19 20 21 20 20 20 19 19 19 20 20 19 19 19 19 19 19 18 18 18 17 17 16 16 16 15 15 15 15 15 15 15 14 14 14 13
23 23 23 24 24 24 23 23 23 23 23 22 22 22 22 22 22 22 22 22 21 21 21 21 21 20 20 20 19 19 19 18 17 17 17 16 16 16 15 15 15 15 15 15
26 26 27 27 27 27 27 27 27 26 26 26 25 25 25 25 24 25 24 24 24 23 23 23 23 23 22 22 22 21 21 20 20 19 19 18 18 17 17 16 16 16 16 16
30 30 30 30 30 30 30 30 30 30 30 29 28 28 28 28 27 27 27 27 26 26 26 25 25 25 25 24 24 24 23 22 22 22 21 20 20 19 19 18 18 18 18 17
33 34 35 35 34 34 34 34 34 34 33 33 32 31 31 31 30 30 30 29 29 28 28 28 28 27 27 27 26 26 25 25 24 24 23 23 22 21 21 20 20 19 19 19
36 37 39 38 38 38 37 37 37 37 37 37 36 35 35 34 34 33 32 32 32 31 31 30 30 29 29 29 28 28 27 27 26 26 25 25 24 24 23 23 22 22 21 21
Wind_Direction
196 197 196 198 202 207 215 224 234 242 252 258 260 266 271 267 266 272 277 285 293 307 316 322 331 341 345 349 351 353 355 357 358 358 357 356 354 352 349 344 339 333 324 311
187 188 189 194 200 206 215 223 233 244 250 255 261 266 267 264 263 266 270 276 286 297 306 312 324 335 342 349 353 355 356 357 358 358 358 358 356 355 355 353 350 344 335 323
179 184 189 193 198 206 213 222 233 243 246 255 264 265 263 262 262 264 266 266 276 281 291 302 317 330 339 347 352 355 356 357 357 358 359 358 358 358 357 356 354 350 344 334
177 183 187 192 197 204 212 223 234 243 248 260 264 263 263 264 262 259 260 261 265 267 277 295 314 328 338 345 351 355 356 356 356 357 359 359 360 360 359 357 356 355 351 345
174 180 186 191 197 204 212 222 236 245 256 265 267 266 260 260 257 254 254 257 258 259 265 292 311 323 333 342 349 352 355 356 357 358 359 360 1 1 0 359 357 356 354 349
172 179 186 191 197 207 216 229 242 249 259 267 267 265 256 254 251 251 249 253 256 256 264 288 305 316 330 341 347 350 352 354 356 358 358 360 1 2 2 1 0 359 357 354
171 178 185 192 199 208 219 233 247 255 262 269 266 265 257 252 249 249 248 253 252 254 265 284 296 308 326 339 345 348 351 352 354 357 358 359 1 2 3 3 2 1 1 360
172 180 187 194 202 211 223 234 243 253 263 268 267 263 253 250 250 249 249 251 250 252 264 279 288 303 323 335 342 346 349 350 353 356 358 359 0 1 3 4 5 4 3 3
176 188 196 201 209 218 229 241 248 257 261 263 261 256 253 252 252 249 246 246 247 252 265 275 284 301 320 332 340 344 346 349 351 354 357 359 360 1 2 3 4 5 5 4
181 194 202 208 218 226 235 244 252 261 267 265 257 257 256 257 257 249 243 243 246 253 263 272 281 297 316 329 337 341 344 346 349 353 356 358 359 0 2 3 4 5 7 7
189 203 217 224 230 237 244 250 257 264 263 261 258 258 260 259 257 251 246 245 246 250 258 266 276 292 309 323 330 336 340 343 346 350 354 356 358 360 1 3 4 6 8 9
199 213 230 236 240 246 251 254 258 262 263 261 261 257 258 258 257 253 248 246 246 249 256 262 274 288 302 315 324 331 336 340 343 347 350 353 356 358 360 2 3 5 7 9
221 231 242 251 255 253 254 255 256 257 261 264 264 261 259 258 257 254 250 249 249 250 256 261 272 285 297 309 320 327 334 338 342 345 348 351 353 355 357 360 2 4 6 7
241 244 244 250 258 261 259 258 258 260 263 265 262 260 260 261 259 255 252 252 252 253 256 261 270 279 291 303 314 323 330 336 340 343 346 349 352 354 355 357 359 1 4 5
253 253 253 256 260 261 261 262 262 264 266 266 263 262 259 259 259 256 255 254 253 253 255 259 266 275 286 297 308 316 324 331 336 341 344 346 348 351 353 355 357 358 360 1
260 260 260 261 263 263 262 264 265 266 267 267 266 264 260 259 260 257 255 255 255 256 256 258 263 272 282 291 301 310 318 324 330 336 341 345 346 347 349 352 354 356 357 359
266 265 265 265 267 266 265 264 265 267 268 268 266 264 261 261 260 257 254 254 256 257 257 257 262 270 278 286 295 302 310 318 323 329 334 339 343 343 344 346 349 352 355 356
272 268 269 270 269 270 270 265 265 267 269 269 267 264 263 262 260 258 256 255 256 258 257 258 261 267 274 281 288 294 301 309 315 321 326 331 336 339 340 341 343 346 350 353
274 272 270 271 272 272 269 268 267 268 268 267 266 265 264 262 259 257 257 256 257 259 259 259 261 265 271 277 283 288 293 300 307 313 318 323 329 333 335 336 337 339 342 346
274 272 271 271 271 273 272 269 268 268 267 267 267 265 263 262 259 257 258 258 258 260 260 261 262 265 269 273 278 283 288 293 299 305 310 315 320 325 328 329 329 330 334 337
273 272 271 271 271 272 271 269 268 267 268 267 268 266 263 261 259 258 258 259 258 259 260 261 262 264 267 270 274 278 283 287 292 297 302 307 311 316 320 322 322 322 323 326
274 273 272 271 271 272 270 269 268 267 267 267 266 265 264 263 262 260 259 259 260 260 261 261 262 264 265 268 271 274 278 282 287 291 294 299 303 307 311 314 315 315 315 316
271 272 271 270 271 272 271 269 268 267 266 266 265 265 264 264 263 262 261 260 260 260 261 261 262 263 264 266 269 272 275 278 282 285 288 292 295 299 302 305 308 309 310 311
270 269 269 269 269 269 268 268 268 267 266 265 265 265 264 263 262 262 262 262 261 261 261 261 261 262 263 265 267 269 272 275 278 281 284 287 289 291 294 297 301 304 305 305
273 270 268 267 266 265 265 266 265 265 265 265 265 265 265 264 262 262 262 262 261 261 261 261 261 262 262 264 266 268 270 272 274 277 280 282 284 286 289 291 294 297 299 300
273 271 269 267 266 265 264 264 264 264 265 265 265 265 265 264 263 262 262 261 261 261 261 261 262 262 262 263 264 265 267 269 271 274 276 278 280 282 284 287 289 291 294 295
Height
5820 5827 5832 5837 5841 5844 5847 5849 5850 5852 5852 5853 5853 5853 5853 5853 5853 5853 5852 5851 5851 5850 5849 5848 5847 5845 5844 5841 5838 5835 5832 5829 5825 5820 5816 5812 5807 5803 5798 5794 5790 5786 5783 5781
5820 5825 5830 5834 5838 5842 5844 5847 5848 5849 5850 5851 5851 5851 5851 5851 5851 5851 5851 5850 5850 5849 5848 5847 5846 5845 5843 5840 5838 5835 5831 5828 5824 5819 5815 5810 5806 5801 5797 5793 5788 5784 5781 5778
5820 5825 5828 5833 5837 5840 5843 5845 5846 5847 5848 5849 5849 5850 5849 5849 5849 5849 5849 5849 5848 5848 5847 5846 5845 5844 5842 5840 5837 5834 5830 5827 5823 5819 5814 5810 5805 5800 5796 5791 5787 5783 5779 5776
5818 5823 5828 5832 5835 5838 5841 5842 5844 5845 5846 5847 5848 5848 5848 5847 5847 5847 5848 5847 5847 5847 5846 5845 5844 5843 5841 5839 5836 5833 5829 5826 5822 5818 5814 5809 5804 5799 5795 5790 5786 5782 5778 5774
5820 5823 5827 5831 5834 5837 5839 5841 5842 5843 5844 5845 5845 5846 5847 5845 5846 5846 5846 5846 5846 5845 5845 5844 5843 5842 5840 5838 5835 5832 5828 5825 5821 5817 5813 5808 5804 5799 5794 5789 5785 5781 5777 5773
5820 5824 5827 5830 5833 5836 5838 5840 5841 5842 5843 5844 5844 5844 5845 5844 5844 5844 5844 5844 5844 5844 5843 5843 5842 5841 5839 5836 5834 5831 5828 5824 5820 5816 5812 5808 5803 5798 5794 5789 5784 5780 5776 5772
5822 5825 5827 5830 5832 5835 5837 5839 5841 5841 5842 5842 5842 5842 5843 5842 5842 5842 5843 5842 5842 5842 5842 5841 5841 5839 5838 5835 5833 5830 5827 5823 5820 5816 5811 5807 5803 5798 5793 5789 5784 5779 5775 5771
5823 5826 5828 5830 5832 5834 5835 5838 5840 5840 5840 5840 5840 5840 5841 5840 5840 5840 5841 5841 5841 5841 5840 5840 5839 5838 5836 5834 5831 5829 5826 5822 5819 5815 5811 5806 5802 5798 5793 5788 5784 5779 5775 5771
5824 5827 5828 5829 5831 5833 5834 5835 5837 5838 5838 5838 5838 5838 5838 5838 5838 5838 5839 5839 5839 5839 5838 5838 5837 5836 5834 5832 5830 5828 5825 5821 5818 5814 5810 5806 5802 5797 5793 5788 5784 5779 5775 5771
5825 5827 5828 5829 5831 5832 5833 5833 5835 5835 5835 5836 5837 5837 5837 5836 5836 5836 5836 5837 5837 5837 5837 5836 5835 5834 5833 5831 5829 5826 5824 5820 5817 5813 5809 5805 5801 5797 5793 5788 5784 5780 5775 5771
5825 5827 5828 5829 5830 5831 5832 5832 5832 5833 5833 5834 5834 5837 5834 5834 5834 5834 5834 5834 5834 5835 5835 5834 5833 5832 5831 5829 5827 5825 5822 5819 5816 5812 5809 5805 5801 5797 5793 5788 5784 5780 5776 5772
5824 5826 5827 5828 5828 5828 5829 5830 5830 5831 5831 5831 5832 5835 5831 5831 5831 5831 5832 5832 5832 5832 5832 5832 5831 5830 5829 5827 5825 5823 5821 5818 5815 5811 5808 5804 5800 5796 5792 5788 5784 5780 5776 5772
5824 5825 5826 5827 5828 5827 5827 5827 5827 5828 5828 5828 5829 5832 5828 5828 5828 5829 5829 5829 5830 5830 5830 5830 5829 5828 5827 5825 5824 5821 5819 5816 5813 5810 5807 5803 5800 5796 5792 5788 5784 5780 5776 5772
5823 5824 5825 5826 5825 5824 5824 5825 5825 5825 5825 5826 5826 5827 5826 5825 5825 5826 5826 5826 5827 5827 5827 5827 5826 5826 5825 5823 5822 5820 5817 5815 5812 5809 5806 5802 5799 5795 5791 5788 5784 5780 5776 5773
5821 5821 5821 5822 5821 5821 5821 5822 5822 5822 5822 5822 5823 5822 5823 5822 5822 5822 5823 5823 5823 5824 5824 5824 5824 5823 5822 5821 5819 5817 5815 5813 5810 5807 5804 5801 5798 5794 5791 5787 5784 5780 5776 5773
5818 5819 5819 5819 5818 5818 5818 5818 5818 5818 5818 5818 5818 5819 5818 5818 5818 5819 5819 5820 5820 5820 5821 5821 5821 5820 5819 5818 5817 5815 5813 5811 5808 5806 5803 5800 5796 5793 5790 5786 5783 5780 5776 5773
5816 5816 5816 5816 5815 5814 5815 5815 5814 5814 5814 5814 5814 5815 5814 5814 5814 5815 5815 5816 5816 5817 5817 5817 5817 5817 5816 5815 5814 5812 5811 5808 5806 5804 5801 5798 5795 5792 5789 5785 5782 5779 5776 5773
5813 5812 5812 5812 5812 5811 5814 5811 5810 5810 5810 5809 5809 5810 5809 5810 5810 5810 5811 5811 5812 5812 5813 5813 5813 5813 5812 5812 5811 5809 5808 5806 5804 5801 5799 5796 5793 5790 5787 5784 5781 5778 5775 5772
5809 5808 5808 5808 5807 5807 5808 5807 5806 5805 5805 5805 5804 5805 5805 5805 5806 5806 5806 5807 5807 5808 5808 5808 5809 5808 5808 5807 5807 5806 5804 5803 5801 5799 5796 5794 5791 5788 5785 5782 5779 5777 5774 5771
5804 5804 5804 5803 5802 5802 5804 5802 5801 5802 5801 5800 5800 5800 5800 5800 5802 5802 5802 5802 5803 5803 5803 5803 5804 5804 5803 5803 5802 5801 5800 5799 5797 5795 5793 5791 5788 5786 5783 5780 5778 5775 5772 5770
5799 5799 5798 5797 5796 5796 5797 5796 5796 5797 5796 5795 5794 5794 5795 5795 5796 5797 5797 5797 5797 5797 5798 5798 5798 5798 5798 5798 5797 5796 5796 5794 5793 5791 5790 5788 5785 5783 5780 5778 5775 5773 5770 5768
5793 5792 5792 5791 5790 5792 5790 5789 5790 5790 5789 5788 5788 5788 5789 5789 5789 5790 5790 5791 5791 5791 5792 5792 5792 5792 5792 5792 5792 5791 5790 5789 5788 5787 5785 5783 5782 5779 5777 5775 5772 5770 5768 5765
5786 5786 5784 5784 5785 5783 5782 5782 5781 5781 5781 5781 5781 5781 5782 5782 5783 5783 5783 5784 5784 5784 5785 5785 5785 5785 5786 5786 5785 5785 5784 5784 5783 5781 5780 5779 5777 5775 5773 5771 5769 5767 5764 5762
5777 5776 5775 5774 5775 5774 5773 5772 5772 5772 5772 5772 5773 5773 5774 5774 5775 5775 5776 5776 5776 5777 5777 5778 5778 5778 5778 5778 5778 5778 5778 5777 5776 5775 5774 5773 5771 5770 5768 5766 5764 5762 5760 5758
5767 5766 5764 5764 5765 5764 5763 5762 5762 5762 5762 5763 5764 5764 5764 5765 5765 5766 5766 5767 5768 5768 5769 5769 5770 5770 5770 5770 5770 5770 5770 5770 5769 5768 5767 5766 5765 5764 5762 5761 5759 5757 5755 5753
5755 5753 5752 5752 5753 5752 5752 5752 5751 5751 5751 5752 5753 5754 5754 5754 5755 5756 5757 5757 5758 5759 5759 5760 5760 5761 5761 5761 5762 5762 5762 5761 5761 5760 5760 5759 5758 5757 5755 5754 5753 5751 5749 5748